Observations for Trim Patrick St
| Time | AQI | Temp °C | Hum % | Pres Pa | CO μg/m³ | H₂S μg/m³ | NO μg/m³ | NO₂ μg/m³ | O₃ μg/m³ | SO₂ μg/m³ | PM1 μg/m³ | PM2.5 μg/m³ | PM10 μg/m³ |
|---|---|---|---|---|---|---|---|---|---|---|---|---|---|
| Thursday 27 August 2026 | |||||||||||||
| 00:35 | 3 | 15.8 | 85 | 38,460 | 0.17 | 1.82 | 1.78 | 16.95 | 28.47 | 0 | 21.72 | 31.04 | 32.31 |
| 00:34 | 3 | 15.8 | 85 | 38,460 | 0.17 | 2.29 | 1.76 | 17.15 | 31.16 | 0 | 20.86 | 31.07 | 31.73 |
| 00:33 | 3 | 15.8 | 85 | 38,460 | 0.17 | 1.84 | 1.6 | 16.6 | 29.67 | 0 | 23.43 | 33.15 | 34.38 |
| 00:32 | 3 | 15.8 | 85 | 38,460 | 0.16 | 1.48 | 1.74 | 15.97 | 34.72 | 0 | 21.72 | 34.51 | 36.31 |
| 00:31 | 3 | 15.8 | 85 | 38,460 | 0.18 | 2.08 | 1.64 | 15.88 | 32.38 | 0 | 21.72 | 30.35 | 33.38 |
| 00:30 | 3 | 15.8 | 86 | 38,460 | 0.17 | 3.02 | 1.75 | 18.67 | 25.87 | 0 | 24.29 | 33.78 | 36.19 |
| 00:29 | 3 | 15.9 | 86 | 38,460 | 0.17 | 2.99 | 1.59 | 17.85 | 26.67 | 0 | 22.57 | 33.07 | 34.2 |
| 00:26 | 3 | 15.9 | 86 | 38,460 | 0.18 | 1.84 | 1.57 | 15.57 | 31.37 | 0 | 23.43 | 35.15 | 36.84 |
| 00:25 | 3 | 15.9 | 86 | 38,460 | 0.18 | 3.67 | 1.37 | 19.27 | 31.55 | 0 | 24.29 | 33.76 | 34.2 |
| 00:23 | 3 | 15.9 | 86 | 38,460 | 0.17 | 3.54 | 1.14 | 22.11 | 27.64 | 0 | 24.29 | 35.14 | 36.15 |
| 00:21 | 3 | 16 | 86 | 38,460 | 0.17 | 5.65 | 1.26 | 22.03 | 30.32 | 0 | 23.43 | 34.47 | 36.19 |
| 00:20 | 3 | 16 | 85 | 38,460 | 0.17 | 6.25 | 1.28 | 31.02 | 27.67 | 0 | 25.14 | 36.6 | 39.62 |
| 00:19 | 3 | 16 | 86 | 38,460 | 0.16 | 3.75 | 1.32 | 18.07 | 28.98 | 0 | 23.43 | 33.78 | 36.19 |
| 00:18 | 3 | 16 | 86 | 38,460 | 0.18 | 6.02 | 1.42 | 28.46 | 27.54 | 0 | 23.43 | 33.78 | 34.89 |
| 00:17 | 3 | 16 | 85 | 38,460 | 0.17 | 3.41 | 1.04 | 18.87 | 29.19 | 0 | 24.29 | 34.48 | 36.88 |
| 00:16 | 3 | 16 | 85 | 38,460 | 0.18 | 4.42 | 1.11 | 17.44 | 32.7 | 0 | 24.29 | 34.48 | 35.58 |
| 00:15 | 3 | 16 | 85 | 38,460 | 0.19 | 4.35 | 1.35 | 25.8 | 23.09 | 0 | 24.29 | 33.81 | 37.57 |
| 00:14 | 3 | 16 | 85 | 38,460 | 0.18 | 3.33 | 1.34 | 19.48 | 29.86 | 0 | 23.43 | 33.79 | 35.58 |
| 00:13 | 3 | 16 | 85 | 38,460 | 0.17 | 3.9 | 1.49 | 21.03 | 30.16 | 0 | 22.57 | 33.79 | 34.27 |
| 00:12 | 3 | 16 | 85 | 38,460 | 0.19 | 3.69 | 1.57 | 20.43 | 31.06 | 0 | 21.72 | 33.1 | 33.62 |